Location: Friaudour
(46.0460°N, 1.2873°E)
Time: 03:36:03
(UTC+00:00)

Cosmos 1864 Rocket - Pass Details

Date: 14 July 2020
Orbit: 951 x 997 km, 82.9° (Epoch: 06 August)

Event Time Altitude Azimuth Distance (km) Brightness Sun altitude
Exits shadow 02:02:20 25° 193° (SSW) 1,822 5.4 -16.9°
Maximum altitude 02:06:07 81° 278° (W) 968 4.4 -16.6°
Drops below altitude 10° 02:12:17 10° 7° (N) 2,690 7.8 -16.1°
Sets 02:14:47 0° 8° (N) 3,642 8.8 -15.8°
